www.pogodaiklimat.ru

Погода и климат >> Архив погоды >> Тувалу >> Фунафути


ПОГОДА в Фунафути

  • Прогноз погоды в Фунафути
  • Монитор погоды в Фунафути

АРХИВ ПОГОДЫ в Фунафути

Время (UTC), дата Ветер
(напр.,м/с)
 
Видим.   Явления Облачность Т
(С)
Тd
(С)
f
(%)
Тe
(С)
Тes
(С)
Комфортность P
(гПа)
Po
(гПа)
Тmin
(С)
Tmax
(С)
R
(мм)
R24
(мм)
S
(см)
03 12.09 ЮВ 3 10 км осадки на расстоянии {ливн. осадки} 9/9 300 м
[Sc diur, vesp Ac cuf]
+29.0 +25.8 83 +43 +45 опасность
перегрева
1009.0 1008.8
06 12.09 В 6 50 км {ливн. осадки} 8/8 300 м
[Cu med, cong Ac cast]
+29.2 +25.1 79 +42 +42 опасность
перегрева
1009.4 1009.2 0.7
09 12.09 В 5 50 км 4/4 600 м
[Cu Sc As op]
+29.0 +25.8 83 +43 +43 опасность
перегрева
1011.1 1010.9
12 12.09 В 4 50 км 4/4 600 м
[Cu hum]
+29.0 +24.8 78 +41 +41 опасность
перегрева
1011.1 1010.9 +32.1
15 12.09 СВ 3 50 км 4/4 600 м
[Cu Sc As op]
+28.5 +25.7 85 1009.6
18 12.09 СВ 4 20 км слаб. ливневой дождь 8/4 540 м
[Cu med, cong Cs]
+26.0 +23.1 84 +35 +35 очень
душно
1010.6 1010.4
21 12.09 СВ 3 20 км осадки на расстоянии {ливн. осадки} 8/8 300 м
[Sc diur, vesp Ac cuf Ci fib]
+30.0 +24.5 72 +42 +45 опасность
перегрева
1012.6 1012.4
00 13.09 нст 1 20 км 8/8 300 м
[Sc diur, vesp Ac cuf]
+29.5 +24.5 75 +42 +50 опасность
перегрева
1011.2 1011.0 +25.6
03 13.09 штиль 0 50 км 9/8 300 м
[Sc diur, vesp Ac cuf Ci fib]
+30.5 +25.6 75 +45 +49 опасность
перегрева
1009.6 1009.4
06 13.09 штиль 0 20 км осадки на расстоянии {ливн. осадки} 10/4 450 м
[Cb cap Ac cuf]
+28.0 +25.9 88 +42 +42 опасность
перегрева
1010.3 1010.1 0.0
09 13.09 З 3 50 км осадки на расстоянии 9/4
[Cu Sc Ac cuf]
+27.8 +24.5 82 +39 +39 очень
душно
1012.4 1012.2
21 13.09 СЗ 5 10 км сильн. дождь {ливн. осадки} 10/10 300 м
[Sc Ac cuf]
+23.2 +22.5 96 +32 +33 очень
душно
1014.5 1014.3
00 14.09 Ю 2 20 км {ливн. осадки, дождь} 10/4 540 м
[Cu med, cong Ac As]
+27.0 +22.3 75 +35 +39 очень
душно
1012.1 1011.9 +23.0 39
03 14.09 ЮВ 2 20 км 10/10 300 м
[Sc diur, vesp Ac cuf]
+28.5 +23.5 74 +39 +41 очень
душно
1010.8 1010.6
06 14.09 нст 1 20 км 10/4 540 м
[Cu med, cong Ac cuf]
+27.3 +24.0 82 +38 +38 очень
душно
1011.9 1011.7
09 14.09 нст 1 50 км 8/8 300 м
[Cb calv Ac cuf Ci fib]
+28.2 +25.2 84 +41 +41 опасность
перегрева
1013.4 1013.2
12 14.09 нст 1 50 км 6/6 300 м
[Cb calv Ac cuf Ci fib]
+27.2 +24.3 84 +38 +38 очень
душно
1012.8 1012.6 +28.8
15 14.09 штиль 0 50 км 4/4 300 м
[Cu Sc As trans Cs]
+27.5 +23.9 81 +38 +38 очень
душно
1011.5 1011.3
18 14.09 штиль 0 50 км 5/5 300 м
[Cu med, cong Ac cast Ci fib]
+26.5 +23.3 83 +36 +36 очень
душно
1012.3 1012.1
21 14.09 В 3 50 км 6/6 600 м
[Cb calv Ac cuf Ci fib]
+31.0 +25.4 72 +45 +50 опасность
перегрева
1014.4 1014.2
00 15.09 В 2 50 км {дождь} 4/4 600 м
[Cu Sc As op]
+31.0 +24.7 69 1013.4
03 15.09 В 2 50 км 5/5 300 м
[Cu Sc As trans Cs]
+30.0 +24.6 73 +43 +48 опасность
перегрева
1011.3 1011.1
06 15.09 ЮВ 2 50 км 5/5 300 м
[Cu Sc As trans Cs]
+29.8 +24.9 75 +43 +43 опасность
перегрева
1012.1 1011.9
09 15.09 нст 1 50 км 3/3 600 м
[Cu Sc As op]
+29.1 +24.7 77 +41 +41 опасность
перегрева
1013.3 1013.1
12 15.09 нст 1 50 км 1/1 600 м
[Cu Sc As op]
+28.0 +24.3 80 +36 +36 очень
душно
1012.8 1012.3 +33.0
15 15.09 штиль 0 50 км 4/4 300 м
[Cu Sc As trans Cs]
+27.5 +24.5 84 +39 +39 очень
душно
1012.1 1011.9
18 15.09 нст 1 50 км 4/4 540 м
[Cu med, cong]
+27.7 +24.4 82 +39 +39 очень
душно
1012.8 1012.6
21 15.09 нст 1 50 км 4/4 600 м
[Cu Sc As op]
+30.0 +24.9 74 +43 +50 опасность
перегрева
1014.2 1014.0
00 16.09 штиль 0 50 км 4/4 540 м
[Cu med, cong]
+31.5 +25.5 71 +46 +64 опасность
перегрева
1012.9 1012.7 +26.8
03 16.09 штиль 0 50 км 3/3 600 м
[Cu Sc As op]
+32.0 +26.5 73 +49 +59 опасность
перегрева
1011.8 1011.6
06 16.09 нст 1 50 км 5/5 300 м
[St Ac cuf Ci fib]
+29.7 +25.2 77 +43 +43 опасность
перегрева
1011.6 1011.4
09 16.09 штиль 0 50 км 4/4 300 м
[Cu Sc As trans Cs]
+29.3 +26.8 86 +46 +46 опасность
перегрева
1012.8 1012.6
12 16.09 нст 1 20 км осадки на расстоянии {ливн. осадки} 9/4 450 м
[Cb cap Ac cuf]
+28.5 +25.0 81 +41 +41 опасность
перегрева
1012.7 1012.5 +32.5 0.0
15 16.09 нст 1 10 км слаб. ливневой дождь 10/10 300 м
[Sc diur, vesp Ac cuf]
+25.0 +23.4 91 +34 +34 очень
душно
1011.5 1011.3
18 16.09 ЮВ 5 10 км осадки на расстоянии 9/6 480 м
[Cb cap Ac As]
+27.4 +25.4 89 +40 +40 очень
душно
1010.9 1010.7 15
21 16.09 ЮВ 4 50 км 8/8 300 м
[Cb calv Ac cuf Ci fib]
+30.0 +27.4 86 +48 +51 опасность
перегрева
1013.3 1013.1
00 17.09 ЮВ 3 50 км осадки на расстоянии 6/6 540 м
[Cu med, cong]
+31.2 +26.5 76 +48 +55 опасность
перегрева
1011.7 1011.5 +24.0
06 17.09 В 6 50 км {ливн. осадки} 4/1 540 м
[Cu med, cong Ci fib]
+29.6 +26.0 81 +44 +44 опасность
перегрева
1010.5 1010.3 0.6
09 17.09 В 4 50 км 3/3 540 м
[Cu med, cong]
+29.4 +25.2 78 +43 +43 опасность
перегрева
1011.9 1011.7
12 17.09 В 6 50 км 3/1 600 м
[Cu Sc As op]
+29.0 +25.9 83 +43 +43 опасность
перегрева
1011.1 1010.9 +32.1
15 17.09 В 7 50 км 3/3 600 м
[Cu Sc As op]
+29.4 +25.3 79 +43 +43 опасность
перегрева
1010.0 1009.8
18 17.09 В 4 50 км 4/4 300 м
[Cu Sc As trans Cs]
+29.0 +25.5 81 +43 +43 опасность
перегрева
1011.1 1010.9
21 17.09 В 6 50 км 5/5 300 м
[Cb calv Ac cuf Ci fib]
+31.0 +26.3 76 +47 +49 опасность
перегрева
1012.7 1012.5
00 18.09 В 6 50 км {снег} 6/6 300 м
[Cu med, cong Ac cast]
+32.1 +26.0 70 +48 +53 опасность
перегрева
1011.1 1010.9 +28.9
06 18.09 В 6 50 км 8/8 300 м
[Cu med, cong Ac cast]
+29.5 +24.5 75 +39 +39 очень
душно
1010.3 1009.9
09 18.09 В 6 50 км 6/4 540 м
[Cu med, cong Cs]
+29.1 +25.0 79 +42 +42 опасность
перегрева
1013.0 1012.8
12 18.09 ЮВ 4 50 км 4/4 540 м
[Cu med, cong]
+29.0 +25.5 81 +43 +43 опасность
перегрева
1011.0 1010.8 +32.2
15 18.09 В 5 50 км 4/4 300 м
[Cu Sc As trans Cs]
+28.9 +25.1 80 +42 +42 опасность
перегрева
1009.8 1009.6
18 18.09 В 4 4000 м слаб. ливневой дождь 9/4 480 м
[Cb calv Ac As]
+26.9 +24.5 87 +38 +38 очень
душно
1011.5 1011.3 6
21 18.09 ЮВ 4 20 км 9/9 300 м
[Cb calv Ac cuf Ci fib]
+28.9 +25.5 82 +43 +44 опасность
перегрева
1012.6 1012.4
00 19.09 В 4 20 км {ливн. осадки} 9/9 300 м
[Cb calv Ac cuf Ci fib]
+28.4 +24.4 79 +40 +44 очень
душно
1011.4 1011.2 +26.2 2

 

Местоположение метеостанции Фунафути (Тувалу): широта -8.53 долгота 179.21 высота над уровнем моря 2 м.

В архиве по умолчанию представлена погода в Фунафути за последнюю неделю. Архивные данные за месяц целиком и за предыдущие месяцы, начиная с января 2011 года, Вы можете получить, выбрав интересующий диапазон дат из раскрывающегося списка и нажав кнопку "Ввод!".


*Определитесь, кто Вы:
робот инопланетянин человек

Внимание! Время в таблицах - всемирное. Для получения местного времени необходимо прибавить поправку, которая равна 12 ч.

Смотрите также архив погоды в соседних городах и на ближайших метеорологических станциях:

Погода на Ниулакита (Тувалу) (249 км)
Погода на Нуи (Тувалу) (269 км)
Погода на Нанумеа (Тувалу) (466 км)
Погода на Вануа Леву (Фиджи) (849 км)
Погода в Аэропорту Беру (Кирибати) (874 км)
Погода в Ламбасе (Фиджи) (879 км)
Погода в Ясава-и-Рара (Фиджи) (926 км)
Погода в Нэбаууолу (Фиджи) (944 км)
Погода на Вануа Мбалаву (Фиджи) (970 км)
Погода в Ракираки (Фиджи) (987 км)

Пояснения к столбцам:

Ветер - указаны скорость ветра в м/с - средняя за 10 мин, порывы в срок и между сроками (в фигурных скобках) и направление, откуда дует ветер: С - северный, СВ - северо-восточный, В - восточный, ЮВ - юго-восточный, Ю - южный, ЮЗ - юго-западный, З - западный, СЗ - северо-западный.
Видимость - горизонтальная дальность видимости в метрах или километрах. При видимости от 1 до 10 км при отсутствии осадков обычно наблюдается дымка, при ухудшении видимости до 1 км и менее - туман. В сухую погоду видимость может ухудшаться дымом, пылью или мглою.
Явления - указаны атмосферные явления, наблюдавшиеся в срок или в последний час перед сроком; фигурными скобками обозначены явления, наблюдавшиеся между сроками (за 1-3 часа до срока); квадратными скобками обозначены град или гололедные отложения с указанием их диаметра в мм.
Облачность - указаны через наклонную черту общая и нижняя облачность в баллах и высота нижней границы облаков в метрах; квадратными скобками обозначены формы облаков: Ci - перистые, Cs - перисто-слоистые, Cc - перисто-кучевые, Ac - высококучевые, As - высокослоистые, Sc - слоисто-кучевые, Ns - слоисто-дождевые, Cu - кучевые, Cb - кучево-дождевые. Подробнее классификацию облаков см. в Атласе облаков (PDF).
T - Температура воздуха - температура, измеренная на высоте 2 м над землей.
Td - Температура точки росы - температура, при понижении до которой содержащийся в воздухе водяной пар достигнет насыщения.
f - Относительная влажность воздуха - влажноcть воздуха, измеренная на высоте 2 м над землей.
Te - Эффективная температура - температура, которую ощущает одетый по сезону человек в тени. Характеристика душности погоды. При расчете учитывается влияние влажности воздуха и скорости ветра на теплоощущения человека.
Tes - Эффективная температура на солнце - температура, которую ощущает человек, с поправкой на солнечный нагрев. Характеристика знойности погоды. Зависит от высоты солнца над горизонтом, облачности и скорости ветра. Ночью, в пасмурную погоду, а также при ветре 12 м/с и более поправка равна нулю.
P - Атмосферное давление - приведенное к уровню моря атмосферное давление.
Po - Атмосферное давление - измеренное на уровне метеостанции атмосферное давление.
Tmin - Минимальная температура - минимум температуры воздуха на высоте 2 м над землей.
Tmax - Максимальная температура - максимум температуры воздуха на высоте 2 м над землей.
R - Количество осадков - Количество выпавших осадков за период времени, мм. При наведении курсора мыши на число - период времени, за который выпало указанное количество осадков.
R24 - Количество осадков - Количество выпавших осадков за 24 часа, мм.
S - Снежный покров - Высота снежного покрова, см. При наведении курсора мыши на число - состояние снежного покрова и степень покрытия местности в баллах.